Theta_e
300 300 300 300 300 299 299 301 302 302 302 302 303 306 307 307 307 308 307 306 303 304 304 305 305 305 305 305 306 305 306 307 308 309 309 308 308 309 310 310 310 313 313 313 314 315 316 316 317 321 326 326 332 333
299 299 299 299 301 303 303 302 302 302 302 303 306 307 306 307 307 308 308 306 305 303 304 305 305 305 304 304 306 305 305 305 307 310 310 310 311 311 312 312 311 313 312 313 313 313 314 316 317 320 320 322 324 329
300 301 303 303 302 302 301 302 303 303 303 304 307 306 306 307 307 308 308 304 302 304 304 305 308 306 305 305 304 305 304 304 305 306 307 308 310 309 310 310 310 311 312 314 314 313 314 315 315 317 317 319 323 325
303 303 302 302 302 302 302 303 303 304 304 306 308 307 307 307 308 308 308 306 303 303 305 308 304 305 305 304 304 304 304 304 304 306 308 309 310 309 312 312 312 312 313 314 315 315 315 314 314 315 317 317 317 320
302 302 301 302 302 303 304 304 304 305 305 306 308 307 307 308 308 308 308 306 306 305 308 308 306 307 306 305 304 304 304 304 304 307 307 309 308 308 308 310 313 311 313 314 315 314 315 316 315 315 315 314 321 323
302 302 301 303 304 306 305 305 306 306 306 308 307 307 307 308 308 306 308 304 304 304 306 309 307 307 306 304 304 305 305 305 306 306 306 306 306 307 311 312 311 311 311 312 314 313 314 315 315 316 318 320 322 324
302 302 304 307 306 305 306 306 306 307 308 307 307 308 309 308 308 309 309 306 304 304 305 308 309 308 307 307 304 305 304 305 304 302 303 305 306 306 307 309 308 309 311 311 311 312 315 314 315 315 317 319 322 323
302 305 308 306 306 306 306 307 309 308 308 307 307 308 308 307 307 308 306 305 303 303 304 308 310 311 309 311 313 305 305 303 302 301 302 304 304 304 308 308 309 310 311 310 310 311 311 313 315 317 318 322 327 330
305 308 307 307 307 307 309 310 309 308 307 307 307 308 309 309 309 308 305 303 302 303 306 306 310 314 309 311 313 309 306 307 305 305 304 308 306 310 306 311 319 323 320 315 315 311 310 312 314 315 317 327 330 330
309 307 307 307 308 310 311 310 309 308 308 308 309 312 315 308 306 305 304 305 304 303 302 304 304 308 307 311 313 314 312 311 314 312 312 309 310 311 311 315 316 319 318 314 315 314 314 316 317 319 325 328 327 330
308 308 308 309 311 311 311 311 311 310 310 312 315 315 309 308 306 310 310 308 307 308 304 304 305 308 308 312 313 311 313 311 317 320 318 315 313 313 311 313 315 315 315 316 319 320 322 321 323 325 327 327 328 326
308 309 309 312 312 312 312 312 312 313 313 311 311 308 310 313 317 317 316 314 314 320 318 312 313 308 309 309 315 318 320 319 322 318 316 314 313 313 312 311 313 315 314 314 314 314 315 317 322 324 326 324 323 322
309 309 311 313 313 313 312 313 313 312 310 309 312 317 317 315 316 316 317 316 318 319 319 318 322 318 317 316 319 321 322 322 318 318 313 313 315 314 312 311 311 312 314 314 314 313 313 313 312 314 317 318 318 319
310 310 312 313 313 313 312 313 313 312 315 317 316 315 318 318 318 316 317 317 315 316 317 320 321 321 321 320 318 320 318 317 320 317 315 314 314 313 311 312 312 312 312 312 311 311 311 311 311 310 311 312 314 316
311 311 313 313 313 313 313 312 313 316 315 317 316 319 317 315 315 314 314 315 315 315 319 321 321 318 319 319 318 316 319 320 317 316 314 311 311 311 310 311 311 312 312 312 312 312 312 310 310 310 310 311 312 310
311 313 314 314 312 313 313 314 316 316 315 315 315 315 315 315 314 313 313 314 314 316 320 318 319 319 316 315 314 314 316 315 313 312 310 308 308 311 310 310 311 310 311 311 311 311 310 310 310 310 310 310 310 310
312 315 314 315 312 313 313 316 315 316 316 316 315 314 314 315 314 314 313 312 312 314 316 316 315 315 313 312 313 313 314 313 314 311 308 309 309 309 309 308 308 308 309 309 308 309 309 309 309 310 311 310 308 308
313 313 314 316 312 314 316 316 315 315 316 315 316 315 315 315 315 314 313 312 312 313 313 311 310 311 311 310 310 308 310 310 311 311 308 308 308 307 307 307 305 305 305 306 306 307 307 307 308 308 308 307 308 307
312 313 315 316 313 316 317 317 316 316 315 315 315 315 315 315 314 312 312 311 310 310 310 310 310 310 309 308 307 306 306 307 309 310 308 306 304 305 305 305 304 304 303 303 302 304 305 305 305 305 306 306 305 304
312 313 315 316 313 317 318 319 316 318 318 316 315 315 316 315 313 312 311 311 309 309 309 308 308 308 307 306 305 305 304 304 306 308 308 306 304 304 303 303 303 302 302 301 301 299 302 304 304 303 302 302 303 302
314 315 315 318 319 318 319 319 319 319 318 318 318 315 318 317 316 312 311 310 310 309 308 307 307 306 305 305 303 302 302 302 303 303 304 304 303 302 302 302 302 301 300 300 300 301 301 302 302 301 301 301 301 300
316 314 319 320 320 319 321 319 321 320 321 320 320 319 318 317 315 313 311 310 310 310 309 308 307 306 305 305 303 302 301 301 300 300 300 301 302 302 301 300 300 300 299 299 299 300 300 300 300 301 300 300 299 297
315 316 320 321 322 320 322 320 324 323 323 322 320 320 318 319 317 313 311 310 311 310 309 308 306 304 304 302 302 301 300 300 300 300 299 299 300 299 299 299 299 298 299 298 298 299 298 297 297 298 298 298 298 298
315 320 322 322 321 319 321 323 322 323 323 322 321 320 319 319 318 314 311 309 309 310 309 309 307 306 305 304 303 301 300 299 299 299 298 298 298 298 298 298 298 298 297 298 297 297 297 297 296 297 297 296 296 296
320 321 321 316 321 322 321 321 322 319 319 321 320 319 319 318 316 314 311 309 308 308 309 308 306 305 305 304 302 301 299 298 298 298 298 296 297 297 297 297 297 297 296 297 297 297 297 296 296 296 296 295 295 295
320 322 323 322 323 322 320 318 317 316 317 319 319 320 318 316 314 311 309 308 308 308 308 307 306 304 304 302 301 300 298 297 297 297 297 295 295 296 296 297 297 297 295 296 296 297 296 296 296 295 295 295 293 295
322 322 323 321 323 322 322 319 318 315 315 315 317 318 316 312 310 310 310 309 309 308 307 305 304 303 302 301 299 298 297 296 296 295 295 294 294 294 294 294 295 295 294 295 296 296 296 295 295 295 295 295 295 295
321 323 323 324 324 322 322 320 318 316 315 315 316 316 314 312 313 311 310 309 309 309 304 302 302 301 301 300 298 298 297 296 296 295 295 295 295 294 294 294 294 292 293 294 294 295 295 295 295 295 295 295 295 295
324 322 322 323 323 323 323 322 320 318 317 316 318 317 316 315 313 311 310 309 309 307 304 302 301 300 300 299 298 297 297 297 297 297 297 297 296 295 294 294 294 294 294 294 293 292 293 293 293 294 294 294 294 295
325 322 323 323 323 322 322 321 321 319 316 317 316 315 315 315 314 312 311 308 308 307 304 303 301 301 301 300 300 299 297 296 296 296 297 297 295 294 294 294 294 294 294 294 294 294 292 293 294 294 294 294 294 294
323 323 324 324 322 323 322 320 317 317 316 316 316 316 317 317 314 312 311 310 309 304 301 302 302 301 301 300 299 298 298 297 296 295 295 295 295 295 294 294 294 294 294 294 294 294 294 294 294 294 293 293 293 293
325 326 325 324 322 322 319 320 320 319 318 318 318 316 316 317 318 315 306 305 305 303 301 303 303 301 300 299 298 297 295 296 296 296 295 295 295 294 294 294 293 293 293 293 293 293 293 293 293 293 293 293 293 293
322 322 323 322 322 322 320 320 320 320 319 319 319 318 318 318 318 312 303 302 303 303 303 302 301 300 299 298 297 297 296 296 295 293 293 292 292 292 293 294 293 293 293 293 293 293 293 293 293 293 293 293 293 293
Wind_Speed
24 26 26 28 29 30 29 31 32 32 32 31 31 29 28 27 25 21 12 17 16 4 9 16 16 11 8 8 8 4 6 3 5 5 4 4 7 3 7 12 6 10 11 12 15 18 24 10 11 13 8 11 9 11
25 27 29 30 33 33 32 32 33 33 33 32 30 30 28 27 26 19 10 20 21 5 6 16 20 23 22 20 9 3 7 8 2 3 2 3 5 4 9 10 8 14 13 11 12 12 10 9 10 12 15 16 17 18
28 30 32 33 34 34 33 33 34 34 33 31 30 29 27 25 21 15 6 13 10 2 7 12 6 6 14 21 22 9 5 8 11 8 3 3 7 9 10 11 16 18 17 14 17 20 24 22 18 21 18 20 20 20
31 32 34 34 35 36 34 33 34 34 32 30 29 28 27 23 17 10 5 12 7 3 3 2 1 6 10 12 17 21 18 2 5 3 3 4 6 8 9 13 14 13 13 17 21 22 23 23 20 21 24 22 25 24
32 34 35 36 36 36 34 33 33 30 29 28 30 28 25 16 8 2 3 9 15 4 2 6 20 1 4 9 15 18 20 15 8 3 5 4 4 6 11 14 19 18 24 18 20 20 18 19 17 20 24 25 21 20
34 36 36 36 36 34 32 31 29 29 28 28 28 24 15 5 3 4 2 1 6 10 2 3 5 3 2 4 12 15 15 9 6 3 4 4 8 3 4 7 20 19 23 25 23 26 26 24 22 20 19 20 24 22
35 36 35 33 32 30 29 28 27 25 27 26 19 10 5 7 5 3 3 1 5 6 1 3 4 2 3 3 3 4 6 2 1 1 3 3 2 6 4 14 31 22 21 23 25 23 25 26 21 21 20 24 25 22
35 34 33 31 29 28 26 25 27 28 25 16 4 13 14 9 5 4 7 3 11 2 1 3 4 3 2 3 2 3 3 2 3 2 3 3 2 2 5 18 25 28 27 23 25 27 25 23 19 17 18 22 22 17
34 32 30 27 26 24 24 29 30 24 18 2 13 8 3 4 3 3 7 10 5 3 2 2 3 3 6 3 1 3 3 3 3 2 2 3 2 3 20 23 17 13 10 8 5 21 20 21 20 20 21 24 15 14
32 29 27 24 21 23 29 29 23 20 4 11 6 4 3 3 9 8 0 1 2 2 1 2 2 3 3 3 2 3 2 2 2 2 2 2 6 15 30 26 21 19 11 5 12 14 17 19 16 17 19 4 4 9
28 25 23 20 23 27 29 22 20 5 5 1 1 3 3 9 2 2 2 3 2 2 2 2 3 4 0 3 3 1 1 2 4 5 7 6 11 23 27 30 24 21 21 22 18 13 9 11 7 2 10 7 11 10
24 21 17 21 25 31 22 19 14 4 2 2 7 6 4 4 1 4 5 3 2 4 2 3 2 3 3 2 3 2 3 1 6 7 5 6 13 20 23 25 30 23 25 24 22 16 23 22 6 6 11 15 15 19
20 16 17 23 30 25 19 18 16 6 11 3 1 2 3 4 7 6 8 4 7 7 5 9 6 2 2 3 3 4 8 6 3 5 4 7 16 19 18 17 20 27 29 28 28 28 30 29 34 25 19 25 29 28
18 13 16 25 28 21 21 23 21 6 2 4 5 7 5 5 7 4 9 8 7 9 11 8 7 3 3 2 3 5 3 5 6 4 6 10 18 19 17 16 14 19 20 23 24 24 24 21 20 30 31 30 28 23
15 10 15 23 22 19 17 22 22 8 5 4 5 6 6 5 5 7 8 7 8 8 8 5 2 6 6 4 6 6 5 5 5 4 7 12 17 16 15 16 18 18 17 16 16 16 17 21 19 21 27 26 28 30
13 5 12 21 17 18 14 12 12 9 4 4 6 5 7 7 10 10 10 10 10 7 4 3 5 4 8 4 7 7 5 5 4 6 8 10 14 15 14 15 15 18 18 17 21 23 24 25 22 19 25 26 28 28
5 4 15 18 16 10 15 4 6 5 5 4 4 6 6 6 10 10 10 10 12 9 5 4 6 4 3 4 4 3 6 8 7 6 6 9 11 11 12 15 19 22 21 24 25 27 27 26 28 26 18 23 25 24
1 9 12 15 13 6 6 7 4 4 4 3 5 5 6 7 9 10 10 10 8 6 7 5 4 8 5 5 6 8 8 8 6 6 6 7 10 12 13 14 18 21 22 22 22 22 24 23 19 16 19 18 19 19
13 10 11 13 10 3 2 3 3 3 3 1 1 3 3 6 8 11 9 12 11 8 2 3 5 6 6 6 8 8 8 8 8 6 5 8 11 13 14 15 16 17 17 17 19 16 16 18 18 18 16 16 17 18
6 6 10 8 5 1 2 3 1 2 1 2 1 1 3 4 6 7 8 9 8 7 6 4 7 6 6 7 7 7 7 9 8 7 5 6 10 10 13 14 15 17 17 17 14 18 14 14 15 15 16 17 16 17
5 5 5 5 2 3 2 0 2 3 1 2 1 3 2 1 5 6 8 7 7 7 6 4 4 5 5 6 8 11 11 11 7 6 7 6 7 7 9 12 13 12 14 14 13 14 14 12 11 12 14 14 13 13
3 7 2 2 1 1 2 2 2 2 2 2 1 2 3 3 4 4 3 5 5 4 4 3 3 4 3 5 7 9 10 11 8 7 6 6 6 7 8 11 13 12 12 14 13 12 13 13 13 12 11 10 11 13
5 4 1 1 1 2 1 1 2 1 2 2 1 2 1 2 3 2 2 2 2 3 4 3 2 2 4 3 4 6 10 12 10 9 9 10 7 7 10 10 9 9 9 11 11 11 10 9 10 11 9 10 11 11
5 2 2 2 1 1 2 1 1 1 1 1 2 2 2 3 1 1 2 2 3 1 2 3 4 5 6 7 3 6 9 12 13 11 9 11 9 8 7 7 8 8 8 6 8 8 9 9 9 10 10 10 9 9
1 3 1 3 1 2 1 1 1 2 2 1 2 0 1 2 1 0 3 2 2 3 3 2 2 3 5 4 3 5 5 11 12 10 9 11 10 9 8 8 7 7 8 9 6 6 8 9 10 11 10 12 11 9
2 1 1 1 1 2 2 2 2 2 3 1 0 1 2 2 2 1 2 1 1 2 4 5 6 5 1 2 5 6 7 9 11 10 8 8 9 10 10 8 8 8 10 7 7 6 6 8 8 8 7 4 5 9
1 2 2 0 2 1 2 2 2 3 3 2 1 2 2 2 2 2 3 3 2 1 1 0 4 6 5 3 1 2 4 7 8 7 5 6 7 8 9 9 9 10 10 7 6 8 10 8 8 8 8 7 7 8
1 3 3 4 3 3 3 3 3 3 2 2 2 3 2 2 2 3 3 7 6 4 5 4 3 2 3 3 1 1 3 2 2 2 4 2 3 7 9 8 7 7 5 5 8 10 7 7 7 8 9 9 9 9
3 3 3 5 5 4 4 3 3 2 2 3 3 3 2 1 2 1 3 4 3 5 6 6 5 4 3 2 1 2 4 4 5 5 5 4 6 9 10 9 9 8 6 4 2 4 6 8 10 10 9 8 7 5
2 4 3 3 3 3 2 3 4 2 3 4 2 1 1 1 0 2 5 8 7 5 3 3 5 3 1 3 4 2 2 3 3 5 5 5 7 7 8 9 9 8 7 6 6 1 1 5 4 6 7 8 7 6
1 3 3 4 3 3 3 1 2 3 3 4 3 5 5 1 2 1 2 2 3 4 6 5 3 1 2 3 6 7 6 2 2 1 3 5 5 7 9 9 8 9 8 7 7 7 8 8 7 7 7 8 7 7
3 4 3 4 4 1 2 3 2 3 2 3 3 2 2 2 1 3 3 1 3 5 3 2 0 5 4 4 5 5 4 5 2 3 3 5 7 9 9 8 6 6 7 7 6 6 6 6 6 7 8 9 9 9
3 4 4 4 3 2 2 3 2 3 3 2 1 0 1 2 3 3 3 3 2 2 3 3 6 6 5 5 6 6 5 4 2 1 3 4 4 5 6 7 6 6 6 6 6 7 6 6 6 6 7 8 8 8
Wind_Direction
319 319 319 319 320 320 322 321 319 322 321 319 316 312 309 308 304 297 254 217 197 225 261 256 260 243 252 256 261 7 295 185 273 234 253 246 256 229 278 265 266 208 203 216 233 242 239 256 287 235 344 320 310 322
319 319 320 319 318 319 322 322 320 321 321 322 314 312 313 312 312 307 261 211 220 216 258 290 278 268 250 248 258 253 268 316 28 287 266 324 254 245 260 257 219 244 257 261 226 235 270 295 279 310 316 305 301 306
319 319 319 319 319 319 322 321 320 321 322 323 318 315 315 316 314 303 262 183 178 311 283 258 253 245 232 233 231 231 227 238 260 281 294 249 254 291 268 253 256 256 274 272 268 259 267 274 285 282 289 294 302 302
320 320 319 321 321 320 321 320 323 324 324 322 318 320 319 318 321 307 203 190 156 124 268 309 276 255 274 243 231 225 235 257 274 292 267 261 257 264 265 272 267 266 270 256 263 256 261 262 262 280 275 275 283 288
321 321 321 322 321 322 323 326 325 324 326 326 325 325 322 317 321 346 157 200 204 177 285 308 301 203 320 210 220 216 220 232 236 224 223 230 245 275 268 277 264 257 258 250 255 260 266 265 266 263 264 269 282 278
323 322 323 322 322 324 327 327 325 327 328 331 331 327 321 304 136 129 135 206 202 215 306 293 4 273 241 205 217 218 218 223 217 212 222 237 242 261 258 253 252 259 263 263 264 263 266 264 265 269 273 277 273 274
324 324 325 326 324 327 330 328 331 335 338 338 334 345 53 109 108 42 46 196 172 154 267 287 289 161 316 181 203 218 210 199 218 279 248 276 240 208 248 256 272 267 246 242 250 256 260 259 254 255 260 262 256 257
326 328 328 325 328 332 332 337 337 338 338 345 56 94 97 95 82 57 19 116 132 117 232 307 294 282 58 277 224 145 158 154 213 239 260 245 236 231 261 254 274 281 272 254 237 228 236 253 249 256 258 277 264 257
329 329 327 331 335 337 341 338 336 340 343 49 138 109 89 44 40 63 102 129 69 51 356 318 312 316 342 277 299 163 161 195 178 233 255 265 289 265 288 297 310 294 337 339 248 201 214 237 252 256 263 264 259 258
331 330 333 337 342 346 341 338 341 342 85 132 139 230 84 49 134 112 95 354 21 22 90 258 305 278 326 326 286 344 64 20 330 260 262 341 340 330 353 3 18 19 30 87 125 168 198 219 227 246 254 300 308 295
334 334 340 346 346 347 344 347 347 82 87 184 147 62 77 154 212 228 11 12 340 322 182 243 254 293 169 311 317 71 354 342 0 9 357 352 5 356 353 0 6 14 23 40 40 44 207 206 203 260 122 156 76 51
338 340 345 347 352 355 356 357 3 63 65 131 103 116 141 215 327 355 9 332 318 329 330 285 308 227 292 256 295 342 332 21 45 340 7 15 350 354 357 358 360 21 30 34 40 52 60 53 82 75 65 70 64 66
343 344 344 350 360 359 4 23 24 70 119 99 149 90 33 13 32 14 350 340 327 328 336 331 325 255 209 245 279 359 8 32 359 25 29 356 347 349 352 352 2 13 21 24 43 41 43 40 38 40 48 51 57 52
345 344 347 359 1 5 22 23 27 58 360 44 29 21 32 13 10 317 309 304 286 288 306 338 346 4 17 26 0 355 35 4 21 34 29 349 349 347 349 357 9 20 18 22 32 41 44 42 37 34 34 36 44 45
340 341 352 357 1 13 23 25 18 27 42 51 41 32 12 320 332 348 332 319 332 314 299 318 289 12 31 43 27 7 14 32 22 26 353 333 339 346 356 5 18 23 28 32 29 41 53 53 50 45 42 43 46 44
342 347 349 348 357 12 12 30 25 20 43 59 42 8 355 5 8 8 355 351 349 315 270 352 20 21 42 46 25 12 2 16 345 339 340 328 338 348 5 13 18 24 28 27 30 39 44 48 54 60 58 50 50 50
347 352 344 350 349 9 20 47 26 44 37 44 34 37 20 19 3 6 2 358 341 12 23 51 48 18 9 46 31 33 354 330 332 329 356 348 350 354 11 24 25 26 25 28 32 32 31 38 39 40 43 49 56 54
308 332 350 356 357 14 19 33 61 58 67 53 39 28 31 22 3 9 10 10 9 16 31 54 47 36 46 32 15 5 358 352 1 358 19 2 8 14 23 31 30 30 30 27 25 30 31 31 35 42 44 41 55 56
316 328 353 360 8 19 34 59 6 96 65 71 360 2 353 32 20 15 12 15 22 28 44 61 55 49 56 30 8 7 2 0 343 344 63 43 32 29 22 22 32 30 27 27 23 21 31 35 35 31 36 48 51 44
306 321 344 354 19 335 109 84 298 113 214 82 130 38 15 28 14 26 24 21 26 31 39 66 63 48 34 32 15 5 5 347 349 350 22 49 21 25 28 16 13 7 10 9 19 25 17 34 32 42 45 48 50 45
348 320 336 14 8 44 56 58 100 9 92 252 72 262 350 322 24 35 33 31 52 53 70 54 62 67 24 23 21 359 17 358 354 355 351 1 10 2 7 0 359 12 13 11 11 21 23 35 39 45 44 48 57 61
311 334 336 346 357 107 97 38 1 91 253 24 230 298 344 16 22 40 347 44 50 43 30 17 21 349 19 24 12 11 8 352 8 348 347 328 355 357 1 5 360 4 21 16 20 29 35 31 22 41 40 52 57 51
342 351 302 319 193 78 146 236 232 193 290 31 274 297 13 22 39 274 63 30 74 44 354 340 320 300 318 331 337 11 9 352 355 7 359 340 344 5 348 0 3 10 11 20 22 27 42 20 32 14 22 14 9 13
2 354 2 28 16 112 189 213 218 219 213 289 318 326 359 15 333 346 25 37 44 347 32 347 278 276 243 216 294 10 4 350 350 353 11 346 342 351 346 351 2 11 358 7 19 23 23 29 6 20 16 16 24 26
327 7 16 314 193 258 268 302 302 277 307 339 300 200 55 268 293 10 345 48 28 21 20 38 305 324 318 331 327 9 6 350 347 335 8 349 345 346 4 0 12 48 10 356 14 19 18 12 14 8 16 16 4 19
73 117 68 6 88 301 342 312 325 309 307 274 243 117 209 255 255 320 13 23 21 360 9 8 359 345 3 13 337 1 4 348 339 333 16 358 2 357 355 354 351 34 9 349 342 357 9 9 17 4 22 55 37 350
151 161 161 182 288 256 249 247 274 265 260 257 204 215 232 263 258 152 149 175 224 139 158 172 15 5 7 53 62 29 358 358 4 360 7 2 2 357 348 340 338 354 340 336 351 1 355 359 7 11 8 9 19 8
297 193 249 162 230 237 277 266 238 237 242 173 236 230 246 241 295 149 187 175 181 157 162 147 123 77 52 81 75 350 357 354 74 336 263 259 5 10 360 351 353 332 315 339 345 339 357 6 3 4 1 357 11 27
222 194 210 244 239 231 238 244 259 231 191 208 261 279 259 188 11 205 162 163 183 196 190 173 152 142 125 110 89 354 347 343 1 18 13 22 22 24 8 2 359 1 344 326 68 14 17 3 4 354 359 359 11 359
211 191 238 247 243 249 236 251 306 349 248 286 331 193 232 242 195 168 177 194 196 203 194 200 162 206 1 339 2 354 288 309 346 4 8 17 20 7 2 4 3 356 354 340 340 90 353 307 326 337 355 355 350 350
175 208 248 255 270 307 345 314 259 246 239 247 233 274 292 298 196 227 219 216 232 166 157 173 172 114 20 9 3 351 349 126 204 272 338 345 348 359 357 347 348 352 358 357 352 359 353 344 352 350 344 343 341 340
211 234 257 273 284 115 251 242 253 255 223 248 260 224 217 253 308 102 39 96 157 167 167 209 175 97 61 50 36 25 7 329 278 249 277 323 339 343 332 329 324 333 353 356 353 356 357 351 356 356 352 352 346 341
271 255 256 275 249 241 183 240 252 267 235 259 299 330 295 341 45 82 77 65 45 76 131 102 98 99 91 56 33 20 13 21 29 285 325 333 349 359 334 335 339 323 327 335 342 343 354 351 346 337 337 341 337 335